map of ALF home
ALF - Airport
Location
City:  Alta, Norway
ICAO:ENAT
IATA:ALF

Details
Type:Airport (Aerodrome, Airfield)
Use:Public/Civil
Latitude:6958'34"N (69.976111)
Longitude:2322'18"E (23.371667)
Datum:WGS 1984
Elevation:9 ft (3 m)
Variation:11.64E (WMM2015 magnetic declination)
0.22 annual change
Runways:1
Longest:7165 × 131 ft (2184 × 40 m), paved

Time
Time Zone:UTC+1 (DST+2)
Local Time:

Weather
METAR:ENAT 182350Z AUTO VRB02KT 9999 NCD M02/M03 Q1000 RMK WIND 700FT 16007KT

Related Locations
Nearby:
Farthest:NZWD: 11568 mi / 18617 km
McMurdo Station [Williams Field], Ross Island, AQ

Find:

   beyond  
but within

Other Information
Maps:
NOTAMs:
Links:
Sources:

  
  • flag of Norway
  

Sectional Chart

Flight Planning
at skyvector.com

Satellite Image

Google Maps Satellite view

 

Copyright © 2004-2018 Karl L. Swartz. All rights reserved.
The Great Circle Mapper name and logo are trademarks of the Great Circle Mapper.
All other trademarks mentioned herein belong to their respective owners.
Please see credits for attibutions and further copyright information.

  Follow gcmap on Facebook Follow gcmap on Twitter Follow gcmap on Google+ GCmap on LinkedIn

hCard Microformat

Geo Microformat